User: anonymous   Login
Location: Sungai Bunut
(2.6333°N, 113.7333°E)
Time: 16:24:40
(UTC+00:00)
Language:

Cosmos 1980 Rocket - Orbit

View from above orbital plane
View from above orbital plane
View from above satellite
View from above satellite

Ground track
Ground track

The orbit data is extracted from the following two-line orbital elements,

1 19650U 88102B   22023.48681737  .00000024  00000-0  36379-4 0  9991
2 19650  70.9995  79.6902 0013130 152.3190 207.8634 14.15814667713963
Epoch (UTC): 23 January 2022 11:41:01
Eccentricity: 0.0013130
inclination: 70.9995°
perigee height: 830 km
apogee height: 849 km
right ascension of ascending node: 79.6902°
argument of perigee: 152.3190°
revolutions per day: 14.15814667
mean anomaly at epoch: 207.8634°
orbit number at epoch: 71396

The dashed part of the orbit path shows where the satellite is in the earth's shadow,  

DLR